Location: Grand Mazuras
(45.9128°N, 1.7636°E)
Time: 11:49:23
(UTC+00:00)

N. Korean satellite - Visible Passes

Search period start: 28 September 2021 00:00
Search period end: 08 October 2021 00:00
Orbit: 449 x 498 km, 97.3° (Epoch: 27 September)

Date Brightness Start Highest point End Pass type
(mag) Time Alt. Az. Time Alt. Az. Time Alt. Az.
28 Sep 6.6 05:15:49 10° NNE 05:19:23 87° ESE 05:23:00 10° SSW visible
29 Sep 8.2 04:48:09 10° NNE 04:51:31 38° E 04:54:54 10° SSE visible
30 Sep 9.6 04:20:58 10° NE 04:23:32 18° E 04:26:07 10° SE visible
02 Oct 7.6 04:57:41 10° NNE 05:01:13 50° E 05:04:46 10° S visible
03 Oct 9.2 04:30:16 10° NE 04:33:14 23° E 04:36:13 10° SSE visible
04 Oct 10.1 04:03:49 10° ENE 04:05:08 12° E 04:06:26 10° ESE visible
05 Oct 7.0 05:07:11 10° NNE 05:10:47 68° E 05:14:25 10° S visible
06 Oct 8.7 04:39:33 10° NNE 04:42:48 30° E 04:46:04 10° SSE visible
07 Oct 9.9 04:12:32 10° NE 04:14:42 15° E 04:16:52 10° SE visible
